| time (UTC) | temp F | wind direction | speed MPH | gust MPH | rain 1hr in | rain 24hr in | rain mn in | humidity % | barometer mb |
| 20260505054547 | 49 | 16 | 10.0 | 19.0 | 0.00 | 0.08 | 0.08 | 81 | 1004.5 |
| 20260505053048 | 48 | 175 | 3.0 | 5.0 | 0.00 | 0.08 | 0.08 | 84 | 1003.9 |
| 20260505051542 | 48 | 175 | 0.0 | 3.0 | 0.00 | 0.08 | 0.08 | 82 | 1003.7 |
| 20260505041537 | 49 | 194 | 2.0 | 6.0 | 0.00 | 0.08 | 0.08 | 80 | 1003.2 |
| 20260505040036 | 49 | 194 | 4.0 | 8.0 | 0.00 | 0.08 | 0.08 | 80 | 1003.1 |
| 20260505034536 | 49 | 203 | 1.0 | 4.0 | 0.00 | 0.08 | 0.08 | 80 | 1002.8 |
| 20260505033054 | 49 | 202 | 4.0 | 6.0 | 0.00 | 0.08 | 0.08 | 82 | 1002.8 |
| 20260505031531 | 49 | 254 | 0.0 | 4.0 | 0.00 | 0.08 | 0.08 | 82 | 1002.5 |
| 20260505030030 | 49 | 254 | 0.0 | 1.0 | 0.00 | 0.08 | 0.08 | 84 | 1002.3 |
| 20260505024528 | 50 | 254 | 0.0 | 2.0 | 0.00 | 0.08 | 0.08 | 83 | 1002.1 |
| 20260505023024 | 50 | 254 | 0.0 | 3.0 | 0.00 | 0.08 | 0.08 | 79 | 1001.7 |
| 20260505021523 | 49 | 255 | 3.0 | 6.0 | 0.00 | 0.08 | 0.08 | 78 | 1001.5 |
| 20260505020023 | 50 | 253 | 0.0 | 3.0 | 0.01 | 0.08 | 0.08 | 83 | 1001.4 |
| 20260505014523 | 49 | 277 | 1.0 | 5.0 | 0.02 | 0.08 | 0.08 | 80 | 1001.6 |
| 20260505013022 | 49 | 273 | 4.0 | 9.0 | 0.06 | 0.08 | 0.08 | 82 | 1001.4 |
| 20260505011522 | 49 | 276 | 5.0 | 10.0 | 0.08 | 0.08 | 0.08 | 81 | 1001.4 |
| 20260505010020 | 50 | 263 | 6.0 | 12.0 | 0.07 | 0.07 | 0.07 | 79 | 1001.4 |
| 20260505004535 | 50 | 271 | 8.0 | 16.0 | 0.06 | 0.06 | 0.06 | 80 | 1001.4 |
| 20260505003016 | 52 | 308 | 12.0 | 17.0 | 0.02 | 0.02 | 0.02 | 71 | 1001.5 |
| 20260505001514 | 55 | 360 | 9.0 | 16.0 | 0.00 | 0.00 | 0.00 | 65 | 1001.4 |
| 20260505000020 | 55 | 281 | 4.0 | 6.0 | 0.00 | 0.00 | 0.00 | 61 | 1001.3 |
| 20260504234522 | 56 | 194 | 5.0 | 11.0 | 0.00 | 0.00 | 0.00 | 59 | 1000.8 |
| 20260504233011 | 57 | 193 | 7.0 | 16.0 | 0.00 | 0.00 | 0.00 | 57 | 1000.6 |
| 20260504231523 | 61 | 249 | 5.0 | 10.0 | 0.00 | 0.00 | 0.00 | 45 | 1000.5 |
| 20260504230011 | 61 | 250 | 6.0 | 12.0 | 0.00 | 0.00 | 0.00 | 42 | 999.8 |
| 20260504224507 | 62 | 279 | 9.0 | 14.0 | 0.00 | 0.00 | 0.00 | 40 | 999.3 |
| 20260504223007 | 65 | 309 | 8.0 | 18.0 | 0.00 | 0.00 | 0.00 | 36 | 999.3 |
| 20260504221506 | 66 | 339 | 12.0 | 21.0 | 0.00 | 0.00 | 0.00 | 36 | 999.2 |
| 20260504220006 | 64 | 355 | 16.0 | 21.0 | 0.00 | 0.00 | 0.00 | 38 | 999.4 |
| 20260504214509 | 62 | 343 | 5.0 | 9.0 | 0.00 | 0.00 | 0.00 | 41 | 999.8 |
| 20260504213007 | 61 | 24 | 6.0 | 10.0 | 0.00 | 0.00 | 0.00 | 42 | 999.7 |
| 20260504211504 | 61 | 355 | 6.0 | 14.0 | 0.00 | 0.00 | 0.00 | 42 | 999.5 |
| 20260504210005 | 61 | 355 | 16.0 | 28.0 | 0.00 | 0.00 | 0.00 | 44 | 999.5 |
| 20260504204502 | 61 | 346 | 19.0 | 34.0 | 0.00 | 0.00 | 0.00 | 42 | 999.4 |
| 20260504203002 | 62 | 5 | 16.0 | 23.0 | 0.00 | 0.00 | 0.00 | 38 | 999.4 |
| 20260504201500 | 61 | 5 | 19.0 | 28.0 | 0.00 | 0.00 | 0.00 | 38 | 999.6 |
| 20260504194559 | 63 | 5 | 25.0 | 41.0 | 0.00 | 0.00 | 0.00 | 33 | 999.5 |
| 20260504193059 | 67 | 278 | 8.0 | 14.0 | 0.00 | 0.00 | 0.00 | 25 | 998.9 |
| 20260504191558 | 66 | 251 | 5.0 | 19.0 | 0.00 | 0.00 | 0.00 | 28 | 998.5 |
| 20260504184604 | 68 | 269 | 7.0 | 14.0 | 0.00 | 0.00 | 0.00 | 28 | 998.2 |
| 20260504183100 | 69 | 262 | 11.0 | 16.0 | 0.00 | 0.00 | 0.00 | 27 | 998.5 |
| 20260504181554 | 69 | 194 | 7.0 | 11.0 | 0.00 | 0.00 | 0.00 | 26 | 998.5 |
| 20260504180054 | 70 | 215 | 5.0 | 13.0 | 0.00 | 0.00 | 0.00 | 27 | 998.5 |
| 20260504174553 | 69 | 286 | 5.0 | 15.0 | 0.00 | 0.00 | 0.00 | 25 | 998.7 |
| 20260504173050 | 70 | 258 | 9.0 | 14.0 | 0.00 | 0.00 | 0.00 | 25 | 998.9 |
| 20260504171549 | 70 | 241 | 5.0 | 10.0 | 0.00 | 0.00 | 0.00 | 25 | 999.1 |
| 20260504081541 | 50 | 325 | 4.0 | 6.0 | 0.00 | 0.00 | 0.00 | 41 | 1000.7 |